Vorticity
4 3 1 2 4 4 4 4 4 2 1 2 4 3 4 4 3 6 8 7 4 3 3 3 4 3 5 6 5 5 5 4 4 4 5 4 4 4 5 5 5 5 5
3 3 2 2 2 3 3 4 2 2 4 5 6 6 2 3 8 8 3 3 4 3 3 4 4 5 5 4 4 4 3 0 1 2 2 3 3 5 4 4 6 6 3
3 3 2 3 3 3 4 4 4 4 5 3 3 6 9 8 5 3 4 4 3 4 5 4 6 4 3 3 4 3 4 5 5 5 6 7 7 6 7 8 8 4 3
4 2 3 4 5 5 6 8 9 9 6 7 8 7 6 4 5 4 4 5 5 5 4 5 4 5 5 5 5 5 6 6 7 8 7 8 7 8 7 6 6 6 7
11 5 7 4 6 7 7 7 7 7 6 6 6 5 5 4 4 3 5 5 4 5 5 6 4 5 7 7 5 6 6 7 8 8 8 7 7 6 7 7 8 9 9
12 8 8 8 8 6 5 4 4 3 3 3 3 4 4 5 5 6 5 5 6 5 5 7 8 5 4 8 8 8 7 7 7 7 7 5 6 7 8 7 7 7 7
0 6 6 4 4 5 4 3 2 3 4 4 4 5 5 5 6 5 5 5 5 7 7 5 6 7 7 6 7 7 7 7 7 6 6 7 7 6 7 7 8 8 8
2 4 4 3 2 3 4 3 3 2 4 5 5 5 6 5 4 5 6 7 7 6 5 6 7 6 6 7 8 7 7 6 6 6 5 6 7 8 8 8 8 9 8
2 4 3 4 3 2 3 3 4 4 4 5 6 6 4 4 5 6 7 6 6 6 6 6 6 7 7 8 7 7 5 5 6 5 6 8 9 7 7 7 5 5 6
2 2 3 2 3 3 2 2 4 5 5 4 5 6 4 4 5 7 5 6 6 6 7 7 7 7 8 8 6 5 5 5 5 7 7 9 5 6 5 4 4 5 5
3 2 2 2 2 2 3 3 5 6 4 5 6 4 3 4 5 6 6 6 6 6 6 7 7 8 8 7 6 4 4 5 7 7 7 5 4 4 4 4 5 4 5
5 5 4 3 2 3 3 3 4 6 6 6 5 4 4 4 4 5 5 5 5 5 6 6 6 8 9 5 5 4 4 5 6 6 7 5 4 5 5 5 5 4 4
3 4 3 2 2 3 2 3 5 6 5 8 4 3 2 3 4 6 5 6 6 6 6 6 6 7 8 5 5 4 4 6 5 6 5 4 4 4 4 4 5 5 4
4 3 4 4 3 3 3 4 4 6 4 6 4 4 3 4 5 6 6 6 5 6 6 6 7 8 9 6 4 4 4 5 5 5 6 5 4 4 4 4 4 5 5
4 3 5 4 3 3 3 3 4 4 4 5 4 3 3 5 6 7 7 6 6 6 5 6 7 7 7 7 5 4 3 3 4 4 4 4 5 4 3 4 4 4 4
3 5 4 4 4 3 3 3 4 4 4 4 4 4 3 4 5 6 7 6 6 6 5 5 6 7 7 4 6 5 4 3 3 4 4 4 4 4 5 4 4 5 5
3 9 3 5 4 4 4 4 5 3 4 4 4 3 4 4 5 6 7 6 6 4 4 5 6 6 7 8 7 8 7 6 5 4 5 3 5 5 4 5 5 5 5
10 9 6 5 5 5 6 4 3 4 5 5 4 3 4 4 5 6 6 7 5 4 6 6 7 7 7 6 7 7 6 5 4 5 6 6 5 5 4 4 4 4 4
7 5 10 8 8 6 4 4 4 4 4 3 3 4 4 5 5 5 5 6 4 5 5 6 6 6 7 7 7 6 6 6 7 8 7 7 7 6 5 4 6 6 5
4 3 -4 9 6 5 4 4 5 4 4 4 4 3 4 5 6 7 7 4 4 5 5 5 5 5 5 5 6 7 7 6 6 6 6 7 9 10 11 10 7 5 7
-6 8 9 -2 2 3 5 5 6 8 4 3 2 3 5 7 7 7 5 3 6 5 4 6 5 6 6 6 6 6 6 6 8 4 7 9 10 7 10 11 10 10 9
14 -2 3 7 2 6 6 6 5 3 4 4 4 4 4 6 5 7 5 5 6 5 7 4 5 6 6 5 6 9 9 6 6 7 4 8 5 7 7 9 7 9 11
9 18 2 4 10 2 2 5 7 4 6 7 6 5 3 2 6 10 9 7 5 3 6 6 6 4 4 5 6 5 7 6 9 8 8 6 7 8 7 8 8 8 11
16 9 12 7 4 9 7 4 6 6 3 4 4 3 4 5 6 6 5 3 4 4 4 5 5 4 5 3 5 6 8 7 9 9 9 9 10 9 7 9 7 7 6
7 21 10 5 6 10 6 9 7 6 5 6 9 8 8 8 6 6 4 5 5 5 6 4 3 4 3 5 5 8 9 10 12 12 9 11 6 8 7 9 8 6 10
12 5 23 -3 0 5 9 8 7 5 8 10 6 6 5 5 6 8 8 7 6 5 3 3 5 4 5 6 10 11 11 9 11 9 6 12 5 6 8 3 14 13 7
Height
5873 5875 5878 5879 5880 5882 5882 5884 5886 5887 5887 5888 5890 5890 5891 5893 5894 5894 5893 5893 5893 5893 5893 5892 5891 5890 5890 5890 5890 5889 5887 5886 5885 5884 5883 5882 5881 5879 5877 5875 5875 5874 5872
5873 5875 5876 5878 5879 5880 5882 5884 5885 5886 5887 5888 5888 5889 5891 5892 5893 5892 5892 5892 5892 5892 5891 5891 5889 5889 5888 5888 5888 5887 5886 5885 5884 5882 5881 5880 5880 5877 5875 5874 5873 5872 5870
5870 5872 5874 5876 5878 5879 5881 5883 5883 5885 5886 5886 5887 5888 5889 5890 5891 5891 5891 5891 5891 5891 5890 5889 5889 5888 5887 5886 5886 5885 5884 5883 5882 5881 5879 5878 5878 5875 5874 5872 5871 5870 5868
5867 5870 5872 5874 5876 5878 5880 5881 5882 5883 5884 5885 5886 5887 5888 5888 5889 5889 5889 5889 5889 5889 5888 5888 5888 5886 5886 5885 5885 5884 5882 5881 5880 5879 5877 5876 5875 5874 5872 5870 5869 5868 5865
5864 5866 5869 5872 5874 5876 5878 5879 5880 5881 5883 5884 5885 5886 5886 5887 5887 5888 5887 5888 5887 5888 5888 5887 5886 5885 5884 5884 5883 5882 5880 5879 5878 5876 5875 5874 5873 5871 5870 5868 5867 5865 5863
5860 5863 5867 5869 5871 5873 5875 5877 5878 5880 5881 5883 5884 5884 5885 5885 5885 5887 5886 5886 5887 5885 5885 5884 5883 5883 5882 5881 5881 5880 5878 5877 5875 5874 5873 5872 5870 5869 5867 5866 5864 5862 5860
5857 5860 5863 5866 5869 5871 5874 5875 5877 5878 5879 5880 5882 5882 5883 5883 5885 5885 5884 5885 5884 5883 5883 5882 5881 5881 5880 5879 5878 5877 5875 5873 5873 5872 5872 5870 5868 5866 5865 5864 5862 5860 5858
5853 5856 5860 5863 5867 5869 5871 5872 5874 5876 5878 5879 5880 5881 5882 5883 5883 5883 5882 5882 5882 5881 5880 5880 5879 5878 5878 5877 5876 5875 5873 5872 5871 5870 5870 5868 5866 5864 5863 5862 5860 5859 5857
5849 5852 5856 5860 5863 5867 5869 5870 5872 5874 5876 5877 5878 5879 5880 5880 5880 5880 5880 5880 5879 5878 5878 5878 5877 5877 5876 5874 5874 5873 5872 5871 5870 5869 5867 5866 5864 5863 5862 5860 5859 5857 5855
5846 5849 5853 5856 5859 5862 5866 5869 5871 5872 5873 5875 5876 5877 5877 5878 5878 5878 5878 5877 5876 5876 5876 5876 5875 5874 5874 5872 5870 5870 5869 5868 5867 5867 5865 5864 5863 5861 5859 5858 5856 5855 5853
5843 5846 5850 5854 5856 5859 5863 5866 5869 5870 5871 5873 5874 5874 5874 5875 5876 5875 5875 5874 5874 5874 5874 5873 5873 5873 5872 5871 5869 5868 5867 5867 5866 5865 5863 5862 5861 5859 5857 5855 5853 5852 5851
5838 5842 5846 5850 5853 5856 5859 5863 5866 5867 5869 5870 5871 5870 5871 5872 5872 5872 5872 5871 5871 5871 5871 5870 5870 5871 5870 5869 5868 5866 5866 5865 5864 5862 5861 5860 5858 5857 5855 5853 5851 5850 5848
5832 5837 5841 5845 5849 5853 5856 5858 5862 5864 5866 5868 5868 5868 5868 5868 5868 5868 5869 5869 5869 5869 5868 5868 5868 5867 5867 5866 5866 5865 5864 5863 5861 5860 5859 5857 5855 5853 5851 5850 5849 5847 5845
5828 5833 5837 5841 5845 5848 5851 5854 5857 5859 5861 5864 5865 5865 5865 5865 5865 5865 5865 5866 5866 5866 5866 5865 5865 5864 5864 5864 5863 5862 5861 5860 5859 5858 5857 5854 5852 5850 5849 5847 5845 5843 5841
5819 5826 5831 5835 5839 5842 5845 5848 5851 5854 5856 5859 5860 5861 5861 5861 5862 5863 5862 5862 5862 5862 5862 5862 5861 5861 5860 5860 5859 5859 5858 5856 5855 5853 5852 5850 5848 5846 5844 5842 5840 5838 5836
5815 5820 5825 5829 5833 5836 5840 5843 5846 5848 5850 5854 5855 5856 5857 5857 5858 5858 5858 5858 5858 5859 5859 5859 5858 5857 5856 5856 5855 5854 5853 5852 5850 5849 5847 5845 5843 5841 5839 5837 5835 5833 5831
5808 5810 5818 5823 5827 5831 5834 5837 5841 5843 5846 5848 5851 5852 5852 5852 5854 5854 5853 5854 5855 5855 5854 5854 5854 5853 5852 5851 5850 5850 5849 5847 5845 5844 5842 5840 5838 5836 5834 5831 5829 5827 5825
5801 5804 5809 5817 5823 5826 5830 5832 5835 5838 5840 5843 5845 5846 5846 5847 5848 5849 5850 5850 5850 5850 5850 5850 5849 5848 5846 5845 5844 5845 5843 5841 5839 5838 5836 5833 5832 5829 5827 5825 5823 5820 5818
5793 5799 5801 5809 5816 5820 5823 5826 5829 5832 5835 5837 5840 5841 5841 5842 5843 5844 5843 5844 5844 5845 5845 5845 5845 5843 5841 5840 5839 5838 5837 5835 5833 5831 5829 5827 5824 5822 5820 5818 5816 5813 5811
5785 5792 5798 5803 5808 5812 5816 5820 5823 5827 5830 5832 5833 5834 5836 5837 5838 5838 5838 5838 5840 5841 5840 5840 5838 5837 5835 5833 5833 5833 5831 5829 5827 5824 5821 5819 5817 5814 5811 5809 5807 5804 5802
5778 5785 5792 5798 5802 5806 5810 5814 5818 5822 5824 5825 5827 5828 5831 5833 5832 5832 5833 5834 5835 5835 5835 5834 5832 5831 5829 5828 5828 5826 5825 5822 5820 5817 5814 5812 5808 5805 5803 5799 5797 5795 5792
5771 5776 5783 5791 5796 5799 5803 5807 5811 5814 5817 5819 5822 5825 5826 5826 5826 5827 5828 5829 5830 5829 5829 5828 5827 5825 5823 5822 5821 5819 5819 5817 5811 5809 5806 5803 5800 5797 5794 5791 5788 5786 5783
5765 5769 5775 5781 5787 5792 5796 5799 5804 5807 5810 5813 5816 5817 5817 5818 5820 5821 5822 5822 5823 5823 5822 5821 5820 5818 5816 5815 5813 5812 5809 5808 5804 5800 5797 5795 5791 5788 5785 5782 5779 5776 5772
5758 5762 5767 5772 5777 5783 5788 5792 5795 5799 5802 5805 5807 5808 5809 5811 5814 5815 5815 5814 5814 5815 5814 5813 5811 5810 5808 5807 5805 5802 5800 5798 5795 5794 5789 5785 5782 5779 5776 5773 5769 5765 5761
5750 5756 5761 5764 5769 5773 5777 5781 5786 5790 5794 5797 5799 5801 5802 5803 5805 5806 5806 5806 5807 5806 5805 5804 5803 5801 5800 5798 5795 5793 5790 5787 5785 5782 5780 5778 5774 5770 5766 5762 5758 5754 5750
5743 5747 5752 5757 5761 5764 5768 5772 5776 5780 5783 5787 5790 5793 5793 5794 5796 5798 5798 5799 5798 5798 5797 5796 5795 5793 5791 5789 5786 5783 5780 5777 5776 5773 5770 5768 5766 5762 5757 5752 5747 5742 5737